Location: Slanting_Bridge
(35.6330°N, 80.9830°W)
Time: 10:29:00
(UTC-04:00)

Hamsat - Visible Passes

Search period start: 02 October 2014 00:00
Search period end: 12 October 2014 00:00
Orbit: 593 x 629 km, 97.6° (Epoch: 01 October)

Date Brightness Start Highest point End Pass type
(mag) Time Alt. Az. Time Alt. Az. Time Alt. Az.
02 Oct ? 19:44:37 10° SW 19:46:53 14° W 19:49:08 10° WNW visible
04 Oct ? 06:11:20 10° ENE 06:13:23 13° E 06:15:26 10° ESE visible
05 Oct ? 06:24:51 10° NE 06:27:56 20° E 06:31:00 10° SE visible
06 Oct ? 06:38:47 10° NE 06:42:27 29° E 06:46:05 10° SSE visible
07 Oct ? 06:52:55 10° NNE 06:56:55 44° E 07:00:54 10° S visible
07 Oct ? 19:19:25 10° SSW 19:23:00 25° W 19:26:34 10° NW visible
08 Oct ? 19:34:39 10° SW 19:37:31 17° W 19:40:22 10° NW visible
09 Oct ? 19:50:35 10° WSW 19:52:03 12° W 19:53:31 10° WNW visible
10 Oct ? 06:03:15 10° E 06:03:56 10° E 06:04:37 10° E visible
11 Oct ? 06:15:54 10° NE 06:18:28 16° E 06:21:02 10° SE visible
